THOR ABLESTAR DEB, 658

Orbit data source: Space-Track

THOR ABLESTAR DEB, 658 is space debris in LEO originally from a launch on Thu, 29 Jun 1961 UTC launched from the Air Force Eastern Test Range (AFETR). Debris objects in space refer to the collection of defunct objects orbiting the Earth. Examples of debris include non-operational satellites, rocket bodies, and fragments generated from explosions, collisions, or faulty payload assembly.

Loading next visibility...
THOR ABLESTAR DEB details
Identifier
658, 1961-015HK
Orbit
LEO
Last TLE update8 hours ago
Origin
Flag of USUSAF SSD (US)
ManufacturerUnknown
MissionSpacecraft
Bus & MotorUnknown
MassUnknown
Launch date (UTC)
1961-06-29 (64 years ago)
Launch vehicleUnknown
Launch site
Air Force Eastern Test Range (AFETR)
Object type
Payload
Rocket body
Debris
Shape & HBRUnknown
Radar Cross SectionSmall (<0.1 m²)

Expand to show TLE details & history

TLE from 8 hours ago
0 THOR ABLESTAR DEB
1 00658U 61015HK  25015.57417467  .00004514  00000-0  57974-2 0  9994
2 00658  65.8653 261.9151 0349975  97.7912 266.3009 13.40850736990204
Epoch: 2025-01-15T13:46Z
Definitive object data (Epoch: 2025-01-15T13:46:48.691Z)
Latitude-0.00009°
Longitude-60.05239°
Altitude1,134.064 km
Speed7.274 km/s
True Right ascension17h 27m 39s
True Declination0° 00' 00"
Sunlit
Object was in daylight at TLE epoch
Visualization TLE readout
Latitude65.75002°
Longitude37.58068°
Altitude855.259 km
Speed7.56 km/s
Apparent Right ascension07h 57m 46s
Apparent Declination43° 02' 32"
Sunlit
Object is in daylight
Visualization observer readout
Local Sidereal Time22:05:00
Azimuth22.674° NE
Elevation-2.202°
Doppler factor1
Orbital elements
Apogee altitude1,366.526 km
Perigee altitude842.769 km
Semi-major axis7,482.784 km
Eccentricity0.0349975
Inclination65.8653°
RAAN261.9151°
Arg. of periapsis97.7912°
True anomaly262.31332°
Mean anomaly266.3009°
Eccentric anomaly264.30559°
Mean motion3.35311 °/min
BSTAR0.0057974
Orbital period107.36 mins
Loading maneuver chart data...

THOR ABLESTAR DEB Visibility forecast

Observer location: undefined°, undefined

Span
Click to sort rows by Start time (UTC) header in descending order
Start Az.
Max El. time (UTC)
Max El. Az.
Max El.
End time (UTC)
End Az.
4 mins2025-01-16 01:03:10.384Z15.453° NNE2025-01-16 01:05:10.384Z37.542° NE12.902°2025-01-16 01:07:10.384Z59.257° ENE
10 mins2025-01-16 02:52:10.384Z335.89° NNW2025-01-16 02:56:10.384Z23.385° NE42.58°2025-01-16 03:02:10.384Z141.675° SSE
5 mins2025-01-16 04:45:10.384Z270.122° WNW2025-01-16 04:46:10.384Z258.407° W15.643°2025-01-16 04:50:10.384Z217.072° SW
8 mins2025-01-16 16:45:10.384Z158.082° S2025-01-16 16:49:10.384Z111.239° ESE24.745°2025-01-16 16:53:10.384Z60.879° ENE
9 mins2025-01-16 18:35:10.384Z238.478° WSW2025-01-16 18:39:10.384Z295.422° NW36.236°2025-01-16 18:44:10.384Z16.078° NNE
|